Location: ????????
(55.6333°N, 37.7000°E)
Time: 00:22:47
(UTC+00:00)

Resurs 1-4 Rocket - Pass Details

Date: 27 May 2026
Orbit: 797 x 813 km, 98.8° (Epoch: 10 June)

Event Time Altitude Azimuth Distance (km) Brightness Sun altitude
Rises 23:09:54 0° 23° (NNE) 3,322 7.7 -9.9°
Reaches altitude 10° 23:12:48 10° 39° (NE) 2,385 6.0 -9.7°
Maximum altitude 23:16:49 22° 89° (E) 1,696 4.1 -9.5°
Drops below altitude 10° 23:20:49 10° 139° (SE) 2,369 4.3 -9.2°
Sets 23:23:40 0° 155° (SSE) 3,294 4.9 -9.0°
